GFSNGP_850_dewp_099.txt.gz
Dewpoint
-5 -4 -4 -4 -6 -7 -7 -8 -6 -14 -10 -9 -9 -6 -0 -1 -2 -3 -3 -3 -4 -3 -3 -3 -2 -2 -0 1 2 2 4 6 7 8 8 9 10 10 10 8 9 9 8 9
-4 -5 -5 -6 -7 -9 -9 -8 -6 -4 -2 -4 -4 -0 -1 -2 -2 -3 -4 -4 -5 -4 -4 -3 -3 -2 -1 -1 -1 1 2 3 4 6 7 8 9 8 9 10 10 8 9 9
-8 -6 -8 -9 -7 -8 -3 -1 -1 1 -1 -2 -0 -2 -3 -3 -3 -4 -4 -5 -5 -5 -5 -4 -3 -3 -2 -2 -1 -1 0 1 2 2 3 4 6 8 8 7 9 9 9 8
-7 -5 -9 -1 -2 -1 -1 -1 -1 -1 0 -0 -2 -3 -4 -4 -4 -5 -5 -6 -6 -5 -5 -4 -4 -3 -3 -2 -2 -2 -1 -1 -0 1 1 2 3 2 3 3 6 8 8 7
-4 -3 -6 -1 -1 -1 -1 -1 -2 -3 -1 -3 -4 -4 -4 -5 -5 -6 -6 -6 -6 -6 -5 -5 -4 -4 -3 -3 -3 -3 -2 -2 -1 -1 -0 1 2 2 1 0 0 5 6 6
-2 -1 -2 -2 -4 -4 -2 -0 -4 -4 -4 -3 -3 -1 -5 -6 -6 -6 -6 -6 -6 -6 -6 -5 -5 -5 -4 -4 -4 -4 -4 -3 -2 -1 -1 -1 -0 0 0 1 0 0 2 3
-2 -1 -1 -3 -4 -3 0 -1 -4 -5 -5 -2 -5 -5 -7 -7 -7 -7 -7 -6 -6 -6 -6 -7 -6 -5 -5 -5 -5 -5 -4 -4 -3 -3 -2 -2 -1 -1 -1 -0 0 0 0 0
-2 -1 -0 -4 -5 -3 -3 -4 -5 -6 -6 -7 -7 -7 -8 -7 -7 -7 -7 -7 -7 -7 -7 -7 -7 -6 -6 -6 -6 -5 -5 -4 -4 -4 -4 -3 -3 -2 -2 -2 -2 -2 -2 -2
-1 -2 -3 -4 -4 -5 -5 -5 -6 -7 -7 -7 -8 -8 -8 -8 -8 -8 -7 -7 -7 -7 -7 -7 -7 -7 -7 -6 -6 -6 -5 -5 -5 -5 -5 -4 -4 -4 -4 -4 -4 -4 -3 -4
-2 -3 -3 -4 -5 -6 -6 -7 -7 -7 -7 -7 -8 -8 -9 -9 -8 -8 -8 -8 -8 -8 -8 -7 -7 -7 -8 -8 -7 -6 -6 -6 -6 -6 -6 -6 -6 -5 -6 -5 -5 -5 -5 -5
-3 -3 -4 -4 -5 -6 -7 -7 -7 -8 -8 -8 -8 -9 -9 -9 -9 -9 -9 -8 -8 -8 -8 -8 -8 -8 -8 -8 -8 -8 -8 -7 -7 -7 -6 -6 -7 -7 -7 -7 -6 -6 -6 -6
-3 -4 -4 -4 -5 -6 -7 -7 -8 -8 -8 -9 -9 -9 -9 -10 -10 -9 -9 -9 -9 -9 -9 -9 -9 -9 -9 -8 -8 -8 -9 -9 -9 -8 -8 -8 -7 -7 -7 -8 -7 -7 -7 -7
-4 -4 -5 -5 -6 -6 -7 -8 -8 -9 -9 -9 -9 -9 -10 -10 -10 -10 -10 -10 -10 -10 -11 -12 -13 -14 -15 -16 -16 -15 -13 -13 -12 -14 -14 -9 -8 -8 -9 -9 -8 -8 -9 -9
-5 -6 -5 -5 -7 -7 -8 -8 -9 -9 -9 -10 -10 -10 -10 -10 -10 -10 -10 -10 -10 -11 -11 -12 -13 -14 -15 -16 -17 -17 -17 -16 -17 -16 -16 -17 -19 -18 -15 -12 -12 -11 -12 -11
-5 -4 -4 -6 -7 -7 -8 -8 -9 -9 -10 -10 -10 -10 -10 -10 -10 -11 -12 -14 -15 -15 -14 -14 -14 -14 -14 -16 -18 -19 -18 -17 -16 -16 -16 -17 -17 -18 -19 -20 -21 -22 -22 -19
-4 -5 -5 -7 -7 -7 -8 -9 -9 -10 -10 -10 -10 -10 -11 -12 -14 -15 -18 -20 -22 -24 -25 -23 -21 -18 -17 -16 -18 -19 -19 -18 -16 -16 -16 -17 -18 -19 -21 -20 -20 -20 -20 -22
-5 -5 -6 -6 -7 -7 -8 -9 -9 -10 -11 -11 -11 -11 -12 -12 -15 -21 -25 -27 -28 -27 -26 -27 -27 -24 -22 -21 -19 -19 -18 -18 -17 -15 -16 -16 -17 -18 -18 -19 -19 -19 -20 -23
-5 -6 -5 -6 -7 -7 -8 -9 -10 -10 -11 -11 -11 -11 -12 -16 -21 -18 -18 -20 -20 -22 -23 -25 -26 -27 -26 -25 -21 -18 -18 -18 -18 -17 -16 -15 -15 -16 -16 -16 -17 -18 -18 -19
-5 -6 -6 -6 -6 -8 -9 -9 -10 -10 -11 -11 -12 -16 -22 -24 -20 -20 -20 -20 -21 -23 -24 -26 -27 -27 -28 -27 -26 -22 -20 -20 -19 -18 -16 -15 -15 -15 -15 -16 -16 -17 -17 -18
-5 -6 -6 -7 -8 -9 -10 -10 -11 -11 -11 -14 -25 -27 -23 -21 -20 -21 -21 -21 -22 -22 -24 -25 -27 -28 -28 -27 -26 -24 -23 -22 -22 -21 -18 -16 -16 -16 -16 -16 -17 -17 -17 -18
-7 -7 -8 -8 -9 -10 -11 -11 -11 -14 -25 -26 -21 -20 -20 -20 -21 -21 -21 -21 -22 -23 -24 -24 -25 -25 -26 -25 -25 -25 -25 -25 -24 -22 -19 -18 -17 -17 -17 -17 -17 -18 -18 -18
-9 -9 -10 -10 -11 -11 -12 -15 -24 -25 -23 -21 -21 -21 -20 -18 -18 -18 -19 -19 -20 -21 -22 -22 -22 -22 -22 -22 -22 -22 -22 -22 -22 -21 -20 -19 -19 -18 -18 -18 -18 -19 -19 -19
-10 -10 -11 -11 -12 -15 -22 -22 -21 -21 -21 -20 -19 -17 -17 -16 -16 -16 -17 -17 -18 -18 -19 -20 -20 -20 -20 -20 -21 -21 -21 -21 -21 -21 -21 -21 -21 -20 -19 -19 -19 -19 -20 -20
-11 -12 -12 -15 -21 -20 -19 -18 -17 -17 -16 -16 -16 -15 -14 -14 -15 -15 -15 -15 -16 -17 -18 -18 -18 -19 -19 -19 -19 -19 -20 -20 -20 -21 -21 -21 -21 -21 -21 -21 -20 -20 -20 -20
-12 -13 -19 -18 -18 -18 -17 -16 -15 -15 -15 -15 -15 -15 -15 -16 -17 -16 -14 -15 -16 -16 -17 -17 -18 -18 -18 -18 -18 -18 -18 -19 -19 -20 -20 -20 -20 -21 -21 -21 -21 -21 -21 -21
-14 -17 -15 -15 -15 -15 -14 -14 -14 -14 -17 -19 -19 -19 -20 -20 -20 -20 -19 -15 -16 -16 -17 -17 -17 -17 -18 -18 -18 -18 -18 -18 -18 -18 -19 -19 -19 -20 -20 -21 -21 -21 -21 -21
-16 -14 -13 -12 -12 -13 -14 -14 -14 -15 -17 -19 -20 -20 -19 -19 -19 -19 -18 -17 -16 -17 -17 -18 -18 -18 -19 -20 -20 -21 -21 -20 -19 -19 -19 -19 -19 -20 -20 -20 -21 -21 -21 -21

GFSNGP_850_dewp_105.txt.gz
Dewpoint
-10 -9 -10 -8 -7 -8 -8 -8 -8 -12 -14 -15 -5 -3 -1 -2 -2 -2 -3 -3 -3 -3 -3 -3 -3 -3 -3 -4 -2 -1 0 0 1 0 2 4 6 7 9 10 9 10 10 10
-8 -10 -10 -11 -13 -13 -13 -13 -12 -13 -14 -3 -4 -3 -1 -1 -2 -3 -3 -4 -4 -4 -3 -4 -4 -4 -4 -5 -4 -2 -1 -1 -1 0 2 3 4 5 7 7 9 9 9 9
-11 -11 -12 -12 -11 -12 -13 -15 -11 -7 -3 -4 -2 -1 -1 -2 -3 -3 -4 -4 -4 -4 -5 -5 -6 -5 -5 -5 -4 -3 -2 -2 -2 -1 0 1 1 2 5 4 6 8 8 9
-10 -9 -8 -2 -4 -3 -2 -4 -2 -3 -3 -4 -2 -3 -3 -3 -3 -4 -4 -5 -6 -6 -6 -6 -6 -6 -6 -6 -4 -3 -3 -3 -3 -2 -2 -1 -1 -0 0 1 1 2 3 4
-2 -6 -5 -4 -3 0 -0 1 -2 -3 -4 -4 -3 -4 -5 -4 -5 -6 -6 -6 -6 -7 -6 -6 -6 -6 -6 -5 -5 -4 -4 -4 -4 -4 -3 -2 -2 -1 -1 -0 0 -0 0 0
-3 -2 -3 2 -4 -5 -2 0 -4 -4 -4 -5 -3 -0 -4 -5 -6 -6 -6 -7 -7 -7 -7 -7 -7 -6 -6 -5 -5 -5 -5 -5 -5 -5 -4 -4 -4 -3 -3 -2 -3 -2 -1 -0
-3 -3 1 -2 -5 -4 1 0 -4 -5 -5 -3 -2 -4 -6 -7 -7 -7 -7 -7 -7 -7 -7 -7 -7 -7 -6 -6 -6 -6 -5 -5 -5 -5 -5 -5 -5 -4 -4 -4 -3 -3 -3 -2
-4 -1 2 -4 -4 -1 -2 -4 -5 -5 -5 -5 -5 -6 -7 -8 -8 -8 -7 -7 -7 -7 -7 -7 -7 -7 -7 -7 -6 -6 -6 -6 -6 -5 -5 -5 -5 -5 -5 -5 -5 -5 -5 -5
0 1 -3 -4 -4 -4 -4 -4 -4 -5 -6 -6 -7 -7 -8 -8 -8 -8 -8 -7 -7 -7 -7 -8 -8 -8 -7 -6 -7 -7 -7 -7 -6 -7 -6 -6 -6 -5 -5 -6 -5 -5 -5 -5
-1 -2 -4 -4 -5 -4 -4 -5 -5 -5 -6 -7 -8 -8 -8 -9 -9 -9 -9 -8 -8 -8 -8 -8 -9 -8 -8 -8 -8 -8 -7 -7 -7 -8 -7 -8 -7 -7 -7 -6 -6 -6 -6 -6
-2 -3 -4 -5 -4 -5 -5 -6 -7 -7 -7 -7 -8 -8 -8 -8 -9 -9 -10 -10 -9 -9 -9 -10 -10 -10 -9 -9 -9 -10 -10 -9 -8 -8 -8 -8 -8 -9 -9 -9 -8 -8 -8 -9
1 -4 -2 -4 -4 -5 -5 -6 -6 -7 -7 -7 -7 -8 -8 -9 -9 -9 -10 -10 -10 -11 -11 -11 -14 -18 -12 -10 -10 -10 -10 -10 -9 -9 -9 -9 -9 -9 -11 -12 -13 -12 -11 -13
-2 -3 -3 -4 -4 -5 -5 -6 -7 -7 -8 -8 -8 -8 -8 -9 -9 -10 -10 -11 -12 -13 -14 -16 -18 -21 -22 -14 -11 -10 -10 -9 -10 -10 -9 -9 -9 -9 -9 -10 -11 -20 -20 -21
-3 -4 -4 -5 -5 -6 -7 -7 -7 -8 -8 -8 -9 -9 -9 -9 -10 -11 -11 -12 -14 -18 -20 -20 -21 -22 -21 -15 -12 -13 -11 -11 -10 -10 -11 -10 -10 -10 -10 -10 -10 -11 -14 -20
-4 -4 -5 -6 -7 -7 -8 -8 -8 -9 -9 -9 -9 -9 -10 -11 -12 -13 -15 -16 -16 -25 -26 -26 -25 -25 -24 -19 -11 -11 -11 -12 -11 -11 -11 -11 -10 -10 -11 -11 -11 -11 -12 -13
-4 -5 -6 -7 -7 -8 -8 -8 -9 -9 -9 -9 -10 -11 -12 -13 -15 -20 -25 -25 -23 -24 -26 -28 -30 -31 -31 -29 -14 -11 -10 -11 -11 -11 -11 -11 -11 -11 -11 -11 -12 -12 -13 -20
-5 -5 -6 -7 -7 -8 -8 -8 -9 -9 -9 -10 -11 -12 -13 -15 -16 -22 -22 -24 -26 -28 -30 -31 -32 -32 -32 -32 -20 -12 -12 -12 -12 -12 -12 -12 -12 -12 -12 -12 -13 -13 -13 -16
-5 -5 -5 -6 -7 -7 -8 -8 -9 -9 -9 -10 -11 -13 -18 -19 -22 -22 -25 -27 -27 -29 -30 -31 -31 -31 -31 -32 -22 -13 -13 -13 -13 -13 -13 -13 -13 -13 -13 -13 -13 -14 -14 -14
-3 -5 -4 -6 -6 -7 -8 -8 -9 -10 -11 -11 -13 -21 -23 -22 -23 -25 -27 -27 -18 -14 -28 -29 -29 -26 -27 -28 -22 -15 -14 -14 -14 -15 -14 -14 -13 -13 -13 -14 -14 -14 -14 -15
-4 -4 -5 -6 -7 -7 -8 -9 -11 -11 -11 -14 -23 -23 -22 -24 -26 -26 -24 -22 -24 -25 -26 -26 -21 -16 -19 -19 -18 -15 -15 -14 -15 -14 -15 -15 -15 -15 -14 -14 -15 -15 -15 -15
-5 -6 -7 -7 -8 -9 -10 -10 -11 -12 -18 -23 -22 -22 -25 -25 -24 -20 -13 -13 -21 -22 -22 -19 -20 -20 -18 -21 -16 -15 -15 -15 -15 -16 -16 -16 -16 -16 -16 -16 -16 -16 -16 -16
-6 -6 -6 -7 -9 -10 -10 -11 -12 -20 -22 -22 -23 -24 -23 -21 -19 -18 -18 -15 -14 -19 -16 -15 -16 -21 -21 -19 -16 -16 -16 -16 -16 -16 -16 -16 -17 -17 -17 -17 -17 -17 -17 -17
-7 -7 -8 -9 -10 -11 -11 -15 -23 -22 -22 -23 -23 -21 -13 -12 -12 -12 -12 -13 -14 -15 -15 -15 -17 -19 -19 -17 -16 -16 -16 -16 -16 -17 -17 -17 -17 -17 -18 -18 -18 -18 -18 -18
-8 -9 -10 -11 -11 -13 -21 -22 -21 -22 -22 -21 -20 -18 -14 -12 -12 -13 -13 -14 -16 -16 -15 -16 -16 -17 -18 -17 -17 -17 -17 -17 -17 -17 -17 -17 -17 -18 -18 -18 -18 -18 -19 -19
-10 -10 -11 -12 -17 -15 -18 -18 -18 -18 -18 -14 -15 -16 -16 -13 -13 -13 -14 -14 -15 -16 -15 -15 -16 -17 -17 -17 -17 -18 -18 -18 -18 -18 -18 -18 -18 -18 -17 -18 -19 -19 -19 -19
-10 -11 -13 -15 -13 -14 -14 -14 -13 -12 -12 -11 -12 -13 -14 -14 -14 -14 -15 -15 -16 -16 -16 -16 -17 -18 -18 -18 -19 -19 -19 -19 -20 -20 -20 -20 -19 -19 -19 -18 -18 -18 -19 -19
-12 -14 -14 -13 -13 -12 -12 -11 -11 -11 -11 -11 -12 -14 -14 -14 -15 -15 -15 -15 -16 -17 -17 -18 -18 -19 -19 -20 -20 -20 -20 -21 -21 -22 -22 -22 -22 -22 -22 -21 -21 -21 -21 -21

GFSNGP_850_dewp_108.txt.gz
Dewpoint
-5 -9 -9 -7 -8 -9 -8 -8 -3 -7 -11 -2 -1 0 -1 -2 -2 -3 -3 -3 -3 -3 -4 -4 -4 -4 -4 -4 -3 -3 -2 -2 -2 -0 1 2 2 3 5 6 7 8 10 10
-4 -8 -10 -10 -13 -13 -11 -11 -13 -14 -11 -2 -1 -1 -1 -2 -3 -3 -4 -4 -4 -4 -4 -5 -5 -5 -5 -5 -4 -3 -3 -3 -2 -1 -0 0 0 1 2 4 6 4 7 10
-5 -8 -11 -10 -9 -13 -11 -13 -9 -8 -2 -4 -2 -2 -2 -3 -3 -4 -4 -5 -5 -5 -5 -6 -6 -6 -6 -6 -5 -4 -4 -4 -3 -3 -2 -2 -1 -0 0 1 2 4 4 6
-7 -8 -9 -2 -4 -4 -3 -1 -2 -3 -4 -3 -3 -3 -4 -4 -4 -5 -5 -5 -6 -6 -6 -6 -6 -6 -6 -5 -5 -5 -5 -5 -4 -4 -4 -3 -2 -2 -2 -2 -0 0 1 1
-5 -6 -3 -4 -3 -0 -0 1 -3 -3 -4 -3 -3 -4 -4 -5 -5 -6 -6 -6 -6 -7 -6 -7 -6 -6 -6 -6 -5 -5 -5 -5 -5 -5 -5 -5 -4 -4 -4 -3 -3 -2 -1 -0
-3 -2 -3 1 -5 -5 -3 1 -4 -4 -4 -4 -2 -1 -5 -6 -6 -6 -6 -6 -6 -7 -7 -7 -7 -7 -7 -6 -6 -6 -5 -5 -5 -5 -5 -5 -5 -5 -5 -5 -4 -3 -3 -3
-2 -3 1 -2 -5 -4 1 -0 -4 -5 -4 -2 -3 -4 -6 -6 -7 -6 -6 -6 -6 -7 -7 -7 -7 -7 -6 -7 -6 -6 -6 -6 -6 -5 -5 -5 -5 -5 -5 -5 -5 -4 -4 -3
-3 -2 1 -4 -4 -1 -2 -4 -4 -5 -5 -5 -6 -6 -7 -7 -7 -7 -7 -7 -7 -7 -8 -8 -7 -7 -7 -7 -8 -7 -7 -7 -7 -7 -7 -6 -6 -6 -6 -5 -5 -5 -5 -5
1 1 -4 -4 -3 -3 -2 -4 -4 -5 -5 -6 -6 -7 -7 -8 -8 -8 -8 -7 -7 -8 -9 -9 -9 -9 -9 -9 -9 -8 -7 -8 -8 -8 -8 -9 -8 -8 -8 -7 -7 -7 -6 -6
-1 -3 -4 -4 -4 -4 -4 -5 -5 -5 -6 -6 -7 -8 -8 -8 -8 -8 -8 -8 -8 -9 -10 -10 -10 -10 -9 -9 -9 -9 -10 -8 -8 -9 -9 -10 -12 -13 -14 -13 -12 -13 -13 -13
-1 -3 -4 -5 -5 -5 -5 -5 -5 -6 -6 -7 -7 -8 -8 -8 -8 -9 -9 -9 -9 -9 -11 -13 -15 -12 -11 -9 -10 -9 -9 -11 -9 -9 -9 -9 -9 -9 -11 -12 -19 -18 -17 -19
1 -4 -2 -4 -5 -5 -5 -5 -6 -6 -6 -7 -7 -8 -8 -9 -9 -9 -10 -10 -11 -13 -16 -18 -21 -20 -17 -15 -12 -12 -10 -9 -11 -10 -10 -10 -10 -9 -10 -10 -11 -17 -22 -24
-2 -3 -3 -4 -5 -5 -5 -6 -6 -7 -7 -7 -7 -8 -8 -9 -9 -9 -10 -12 -15 -17 -20 -22 -23 -21 -16 -14 -13 -15 -11 -10 -10 -11 -10 -10 -10 -11 -11 -10 -10 -12 -15 -17
-3 -4 -4 -5 -5 -5 -6 -7 -7 -7 -8 -8 -8 -8 -8 -9 -10 -11 -13 -16 -22 -24 -25 -25 -26 -27 -22 -14 -11 -11 -15 -11 -11 -12 -12 -12 -12 -12 -12 -12 -12 -12 -15 -16
-4 -4 -5 -5 -6 -7 -7 -8 -8 -8 -8 -8 -8 -9 -10 -11 -13 -14 -15 -16 -19 -25 -27 -28 -30 -29 -21 -11 -11 -10 -11 -13 -10 -11 -12 -11 -12 -12 -12 -13 -13 -13 -15 -22
-4 -5 -6 -6 -7 -7 -8 -8 -8 -8 -9 -9 -9 -10 -12 -13 -16 -22 -23 -22 -25 -29 -30 -31 -31 -31 -31 -24 -15 -12 -12 -12 -12 -12 -12 -13 -13 -12 -13 -13 -13 -13 -14 -16
-5 -5 -6 -7 -8 -8 -8 -8 -8 -8 -9 -10 -11 -12 -14 -15 -20 -22 -25 -27 -28 -31 -32 -32 -31 -32 -32 -31 -21 -13 -13 -14 -14 -13 -13 -13 -14 -12 -13 -13 -13 -15 -13 -14
-5 -6 -6 -6 -7 -7 -8 -8 -8 -9 -9 -10 -11 -13 -18 -19 -22 -25 -27 -26 -25 -28 -31 -31 -31 -30 -30 -29 -21 -14 -14 -14 -14 -14 -14 -15 -14 -14 -14 -15 -15 -14 -15 -15
-4 -5 -5 -6 -7 -7 -8 -8 -8 -9 -9 -11 -12 -18 -21 -22 -25 -26 -25 -26 -20 -26 -28 -28 -25 -21 -27 -25 -18 -15 -15 -15 -15 -15 -16 -16 -15 -16 -15 -15 -15 -15 -15 -16
-4 -4 -5 -6 -7 -8 -8 -8 -9 -9 -10 -12 -20 -22 -23 -25 -26 -25 -21 -17 -24 -25 -24 -24 -23 -18 -25 -21 -16 -15 -16 -16 -16 -16 -16 -16 -17 -17 -17 -16 -16 -17 -16 -15
-4 -5 -6 -7 -7 -8 -8 -9 -10 -11 -12 -21 -22 -23 -26 -26 -24 -20 -12 -12 -15 -21 -17 -16 -18 -23 -24 -22 -15 -16 -16 -16 -17 -17 -17 -17 -17 -18 -18 -18 -18 -17 -17 -18
-5 -6 -6 -7 -7 -8 -10 -11 -11 -13 -21 -22 -23 -25 -24 -21 -19 -16 -13 -14 -14 -18 -17 -14 -16 -19 -22 -21 -16 -16 -17 -17 -17 -17 -17 -17 -18 -18 -19 -18 -19 -18 -20 -18
-6 -6 -6 -7 -8 -10 -10 -11 -13 -21 -22 -23 -24 -19 -11 -12 -13 -12 -11 -13 -13 -16 -16 -14 -15 -18 -19 -21 -16 -16 -17 -17 -17 -18 -17 -17 -17 -17 -17 -18 -19 -20 -19 -19
-7 -7 -7 -8 -10 -10 -11 -16 -22 -21 -23 -23 -22 -20 -16 -11 -11 -12 -13 -14 -15 -16 -17 -15 -15 -16 -19 -16 -16 -17 -18 -18 -18 -18 -19 -19 -18 -18 -19 -18 -17 -18 -20 -20
-8 -8 -9 -10 -11 -13 -20 -20 -21 -23 -20 -16 -18 -18 -20 -15 -14 -13 -15 -15 -15 -16 -15 -15 -16 -17 -17 -17 -17 -19 -18 -19 -19 -19 -19 -20 -20 -20 -19 -19 -18 -18 -18 -18
-9 -10 -11 -12 -13 -15 -15 -16 -15 -16 -12 -12 -12 -12 -14 -14 -14 -14 -14 -15 -15 -16 -15 -16 -17 -18 -18 -19 -20 -19 -20 -20 -20 -21 -21 -22 -22 -22 -22 -21 -21 -20 -20 -20
-10 -11 -13 -12 -13 -13 -14 -12 -11 -11 -10 -11 -12 -13 -14 -14 -15 -15 -15 -15 -16 -16 -16 -17 -18 -18 -19 -19 -20 -21 -21 -22 -22 -22 -23 -23 -24 -24 -24 -24 -24 -23 -23 -22

GFSNGP_850_dewp_114.txt.gz
Dewpoint
0 0 -0 -1 -8 -4 1 -0 1 -1 3 3 -0 -2 -3 -3 -4 -4 -4 -5 -5 -6 -6 -6 -6 -5 -5 -4 -4 -4 -4 -4 -4 -4 -4 -3 -3 -3 -2 -1 -1 -0 1 2
3 -0 -4 -8 -9 -10 -11 -4 2 2 3 -1 -2 -3 -3 -4 -4 -5 -5 -5 -6 -6 -6 -6 -6 -5 -5 -5 -5 -4 -5 -4 -4 -4 -4 -4 -4 -4 -3 -3 -2 -2 -1 -0
4 2 1 -0 -6 -2 -1 -1 -0 1 -0 -2 -3 -4 -4 -4 -4 -5 -6 -6 -6 -6 -7 -6 -6 -6 -6 -5 -5 -5 -5 -5 -4 -4 -4 -3 -3 -4 -4 -4 -4 -4 -3 -3
2 1 4 -1 -1 -1 -1 -1 -1 -1 -2 -3 -4 -4 -5 -5 -5 -5 -7 -7 -7 -7 -7 -7 -7 -6 -6 -6 -5 -5 -5 -5 -5 -5 -4 -4 -3 -4 -4 -5 -5 -5 -5 -5
1 0 -0 -1 -1 -0 -1 -1 -3 -1 -3 -4 -4 -5 -5 -6 -7 -7 -7 -7 -7 -7 -7 -6 -7 -6 -6 -6 -6 -6 -7 -8 -8 -8 -8 -7 -6 -6 -5 -5 -5 -5 -5 -4
0 -1 1 -1 -2 -3 -4 -2 -4 -3 -3 -4 -5 -4 -5 -6 -7 -7 -7 -7 -7 -7 -7 -7 -6 -7 -7 -7 -7 -8 -9 -11 -12 -13 -14 -12 -14 -15 -10 -7 -6 -6 -6 -6
0 0 1 -2 -2 -3 -3 -3 -4 -5 -5 -3 -4 -6 -6 -7 -7 -7 -7 -7 -7 -7 -7 -7 -7 -7 -9 -9 -8 -9 -8 -11 -12 -14 -16 -19 -20 -18 -18 -19 -20 -16 -10 -7
-0 0 1 -3 -3 -1 -4 -4 -4 -6 -5 -5 -6 -7 -7 -7 -7 -7 -7 -8 -8 -8 -8 -8 -8 -9 -9 -9 -9 -9 -10 -11 -13 -14 -14 -16 -18 -21 -24 -24 -24 -22 -21 -21
-1 -2 -3 -3 -3 -3 -5 -5 -5 -6 -6 -6 -7 -7 -7 -7 -7 -7 -8 -8 -9 -11 -10 -10 -10 -10 -10 -10 -12 -12 -13 -14 -14 -14 -14 -16 -17 -17 -19 -22 -23 -21 -21 -18
-2 -3 -3 -3 -3 -4 -5 -6 -6 -7 -7 -7 -8 -8 -8 -8 -8 -8 -8 -9 -12 -15 -13 -12 -12 -13 -12 -11 -12 -15 -16 -15 -14 -14 -13 -13 -14 -14 -15 -18 -18 -15 -14 -16
-2 -3 -4 -3 -4 -4 -5 -6 -6 -7 -7 -8 -8 -8 -8 -8 -8 -9 -9 -12 -18 -19 -16 -17 -17 -18 -18 -18 -16 -16 -16 -13 -12 -12 -12 -12 -12 -11 -12 -15 -17 -12 -12 -12
-3 -4 -5 -4 -5 -5 -6 -6 -6 -7 -7 -8 -8 -9 -9 -9 -9 -11 -13 -18 -21 -22 -20 -19 -17 -15 -15 -17 -17 -13 -13 -13 -13 -13 -14 -13 -13 -13 -13 -14 -17 -18 -15 -13
-3 -4 -5 -5 -5 -6 -6 -7 -7 -8 -8 -8 -8 -8 -9 -10 -11 -14 -18 -22 -24 -28 -29 -19 -15 -16 -14 -14 -16 -16 -15 -15 -16 -15 -13 -13 -13 -14 -15 -16 -17 -18 -19 -16
-4 -4 -4 -5 -5 -6 -6 -7 -7 -7 -8 -8 -9 -9 -10 -11 -14 -20 -23 -24 -29 -31 -30 -21 -18 -17 -16 -19 -20 -19 -16 -14 -13 -14 -14 -13 -13 -14 -14 -15 -16 -17 -19 -19
-4 -4 -5 -5 -6 -6 -6 -6 -7 -8 -8 -8 -9 -10 -11 -14 -17 -20 -23 -28 -30 -31 -32 -32 -27 -25 -24 -24 -23 -17 -16 -15 -15 -16 -17 -15 -15 -15 -15 -16 -16 -16 -17 -17
-4 -5 -5 -5 -5 -5 -6 -7 -7 -8 -8 -8 -9 -11 -12 -14 -16 -17 -22 -29 -31 -32 -32 -32 -33 -32 -32 -29 -24 -22 -19 -17 -18 -19 -20 -18 -17 -16 -16 -16 -16 -15 -15 -16
-5 -5 -5 -5 -6 -6 -7 -7 -8 -8 -8 -9 -10 -11 -12 -14 -16 -22 -29 -31 -33 -33 -32 -31 -32 -31 -26 -23 -24 -21 -19 -18 -18 -19 -19 -18 -18 -17 -17 -16 -17 -17 -16 -16
-5 -5 -6 -6 -6 -7 -7 -8 -8 -8 -8 -9 -10 -11 -15 -21 -25 -27 -28 -31 -31 -32 -30 -28 -29 -29 -25 -24 -23 -20 -19 -19 -19 -18 -19 -19 -19 -19 -20 -20 -19 -19 -18 -18
-6 -6 -6 -7 -7 -7 -8 -8 -8 -9 -9 -10 -11 -14 -20 -24 -28 -28 -28 -30 -29 -26 -27 -28 -28 -27 -24 -21 -20 -19 -18 -18 -18 -18 -17 -18 -18 -17 -17 -18 -20 -21 -21 -22
-6 -6 -7 -7 -7 -7 -6 -7 -9 -9 -10 -11 -13 -17 -22 -27 -28 -27 -22 -25 -24 -23 -23 -23 -19 -23 -24 -24 -21 -19 -17 -17 -18 -18 -18 -18 -17 -17 -17 -18 -18 -17 -18 -19
-6 -7 -6 -6 -6 -6 -6 -7 -7 -9 -11 -11 -12 -20 -25 -28 -23 -15 -13 -17 -21 -23 -20 -18 -16 -18 -21 -25 -21 -19 -18 -18 -20 -19 -19 -18 -19 -19 -19 -19 -19 -19 -18 -18
-5 -5 -5 -5 -5 -6 -7 -7 -8 -9 -11 -12 -21 -24 -26 -21 -16 -14 -13 -13 -17 -18 -18 -17 -15 -17 -18 -20 -21 -20 -18 -18 -19 -19 -20 -20 -21 -21 -21 -21 -20 -19 -19 -18
-4 -4 -5 -5 -6 -6 -7 -8 -8 -9 -12 -21 -24 -26 -24 -18 -14 -13 -14 -15 -15 -16 -17 -17 -16 -17 -17 -19 -20 -19 -20 -21 -20 -20 -20 -20 -21 -22 -23 -23 -22 -21 -20 -20
-5 -5 -6 -6 -6 -7 -8 -9 -10 -13 -21 -23 -24 -17 -14 -15 -14 -13 -13 -14 -14 -16 -17 -17 -17 -17 -18 -19 -20 -22 -24 -24 -24 -24 -24 -24 -26 -27 -26 -26 -26 -26 -25 -24
-5 -6 -6 -7 -7 -8 -9 -10 -14 -20 -22 -21 -14 -15 -16 -12 -12 -13 -13 -16 -18 -17 -17 -17 -17 -18 -18 -19 -22 -25 -25 -25 -26 -26 -27 -28 -28 -28 -27 -27 -27 -28 -27 -27
-6 -7 -7 -7 -7 -8 -9 -11 -20 -21 -23 -18 -16 -16 -15 -15 -14 -15 -16 -16 -16 -17 -18 -18 -18 -18 -19 -22 -24 -26 -27 -28 -28 -29 -29 -28 -28 -28 -28 -28 -28 -28 -28 -28
-8 -8 -8 -9 -9 -10 -11 -16 -20 -22 -23 -21 -20 -16 -15 -15 -16 -16 -16 -16 -16 -17 -18 -18 -19 -21 -23 -26 -28 -29 -29 -29 -29 -29 -29 -29 -28 -28 -28 -28 -28 -28 -28 -28

GFSNGP_850_dewp_117.txt.gz
Dewpoint
4 3 4 4 4 3 2 2 3 0 3 3 1 -2 -3 -4 -4 -5 -5 -5 -6 -6 -6 -6 -6 -6 -5 -5 -4 -4 -4 -4 -4 -3 -3 -3 -4 -4 -3 -3 -3 -3 -2 -2
3 2 1 2 -3 -9 -2 0 1 1 3 -0 -2 -3 -3 -4 -4 -5 -5 -5 -6 -7 -7 -7 -6 -6 -5 -5 -5 -4 -4 -4 -4 -4 -3 -4 -3 -3 -4 -4 -4 -3 -3 -3
3 3 5 5 -1 -6 -1 -1 1 2 0 -1 -2 -2 -3 -4 -5 -6 -6 -6 -6 -6 -6 -7 -7 -6 -6 -6 -5 -5 -5 -6 -7 -6 -6 -5 -5 -4 -4 -4 -4 -3 -3 -3
3 3 4 0 -1 -1 -0 -1 -0 -0 -0 -2 -3 -4 -4 -5 -5 -6 -7 -7 -6 -7 -6 -7 -6 -7 -6 -6 -6 -7 -7 -9 -11 -11 -12 -11 -8 -7 -6 -6 -5 -5 -4 -4
2 3 1 -1 -1 -1 -1 -0 -2 -1 -3 -4 -4 -5 -5 -6 -6 -7 -7 -7 -7 -7 -7 -7 -7 -7 -7 -7 -7 -8 -12 -14 -16 -18 -16 -15 -18 -19 -17 -14 -11 -9 -8 -6
2 1 2 -3 -2 -3 -5 -3 -4 -3 -4 -5 -6 -6 -5 -6 -7 -7 -7 -7 -7 -7 -7 -7 -7 -7 -7 -8 -9 -10 -12 -13 -15 -17 -20 -22 -23 -22 -21 -20 -20 -20 -21 -20
0 0 -1 -2 -3 -4 -5 -4 -4 -3 -4 -5 -5 -6 -6 -7 -7 -7 -8 -8 -7 -7 -7 -7 -8 -9 -9 -9 -10 -10 -12 -14 -16 -17 -17 -19 -21 -22 -23 -22 -22 -22 -21 -22
-1 -0 -1 -3 -3 -2 -4 -4 -5 -4 -3 -4 -5 -6 -7 -7 -7 -7 -8 -8 -8 -8 -8 -8 -9 -9 -11 -12 -11 -13 -15 -16 -17 -18 -19 -21 -23 -24 -25 -25 -25 -23 -23 -23
-1 -2 -3 -3 -3 -4 -5 -5 -6 -6 -6 -5 -6 -7 -7 -7 -7 -8 -8 -8 -9 -10 -9 -9 -9 -10 -11 -13 -14 -15 -17 -17 -16 -17 -18 -19 -21 -22 -24 -24 -23 -20 -22 -23
-2 -3 -3 -3 -4 -5 -5 -6 -6 -6 -6 -6 -7 -7 -7 -7 -8 -8 -8 -12 -13 -11 -11 -13 -13 -13 -13 -16 -18 -18 -16 -15 -15 -16 -15 -15 -16 -17 -20 -20 -18 -13 -17 -20
-2 -3 -3 -3 -4 -5 -5 -6 -7 -7 -7 -7 -7 -8 -8 -8 -8 -8 -10 -16 -17 -16 -16 -17 -17 -19 -19 -18 -17 -15 -16 -15 -14 -14 -14 -15 -15 -16 -18 -18 -18 -15 -14 -17
-2 -4 -4 -4 -4 -5 -6 -6 -7 -7 -7 -8 -8 -8 -8 -8 -9 -10 -14 -20 -18 -17 -16 -16 -17 -17 -18 -18 -17 -16 -16 -16 -16 -16 -16 -17 -17 -16 -17 -17 -19 -18 -15 -15
-3 -4 -5 -4 -5 -5 -6 -6 -6 -7 -8 -8 -8 -8 -9 -9 -11 -14 -19 -22 -23 -21 -20 -19 -18 -17 -16 -18 -18 -17 -18 -18 -19 -20 -19 -16 -16 -17 -18 -18 -18 -19 -19 -16
-4 -5 -5 -5 -5 -6 -6 -6 -7 -8 -8 -8 -8 -9 -9 -11 -14 -19 -23 -27 -29 -26 -23 -20 -21 -23 -19 -16 -18 -19 -18 -18 -20 -18 -16 -16 -17 -16 -16 -17 -18 -18 -18 -18
-4 -4 -5 -5 -5 -6 -7 -7 -7 -8 -8 -8 -9 -9 -11 -14 -19 -23 -24 -28 -31 -32 -30 -24 -24 -23 -20 -21 -23 -24 -24 -21 -21 -21 -21 -22 -21 -20 -20 -20 -20 -19 -18 -19
-4 -5 -5 -5 -6 -6 -7 -7 -7 -7 -8 -9 -9 -10 -12 -16 -20 -22 -28 -30 -30 -31 -30 -27 -26 -25 -25 -26 -29 -28 -26 -23 -25 -26 -26 -25 -25 -24 -23 -22 -21 -20 -19 -19
-5 -5 -5 -5 -6 -6 -7 -7 -8 -8 -8 -9 -9 -11 -14 -16 -18 -24 -30 -31 -29 -30 -30 -28 -29 -26 -28 -33 -33 -30 -26 -26 -25 -24 -24 -23 -23 -22 -21 -22 -22 -22 -22 -23
-5 -5 -5 -5 -6 -6 -7 -7 -8 -8 -9 -9 -10 -12 -13 -16 -20 -30 -32 -31 -29 -28 -27 -28 -29 -31 -31 -31 -30 -27 -24 -22 -22 -22 -21 -20 -19 -18 -18 -19 -19 -20 -20 -20
-5 -5 -5 -6 -6 -7 -7 -7 -8 -8 -9 -9 -10 -11 -14 -20 -26 -30 -30 -29 -27 -26 -27 -28 -29 -30 -29 -29 -28 -23 -20 -20 -21 -22 -20 -19 -19 -18 -18 -19 -19 -19 -19 -19
-5 -5 -6 -6 -6 -7 -7 -7 -8 -8 -8 -9 -10 -13 -20 -24 -28 -25 -27 -27 -24 -25 -25 -22 -23 -24 -25 -26 -23 -21 -19 -20 -22 -23 -22 -21 -21 -21 -21 -21 -20 -20 -20 -19
-5 -6 -6 -6 -6 -6 -6 -7 -7 -8 -9 -10 -11 -16 -22 -27 -26 -25 -23 -24 -23 -21 -20 -21 -21 -20 -20 -21 -21 -20 -19 -21 -24 -24 -23 -23 -23 -24 -24 -25 -25 -23 -21 -20
-6 -6 -6 -6 -6 -6 -6 -6 -7 -8 -9 -12 -13 -18 -25 -27 -20 -14 -15 -17 -21 -19 -20 -20 -19 -17 -17 -19 -21 -21 -23 -26 -27 -25 -26 -28 -29 -29 -29 -29 -28 -27 -25 -24
-5 -5 -5 -5 -5 -6 -6 -7 -7 -8 -9 -10 -13 -20 -26 -24 -18 -15 -14 -16 -17 -17 -18 -17 -17 -16 -17 -20 -23 -24 -29 -30 -30 -30 -30 -30 -30 -29 -29 -29 -28 -28 -28 -28
-4 -5 -5 -5 -6 -6 -7 -8 -8 -9 -9 -13 -21 -25 -23 -17 -13 -13 -14 -16 -15 -16 -17 -17 -16 -17 -18 -21 -24 -29 -31 -31 -31 -31 -30 -30 -30 -29 -29 -29 -29 -29 -28 -28
-4 -5 -5 -6 -6 -7 -8 -8 -9 -10 -13 -22 -24 -23 -17 -15 -15 -14 -13 -14 -16 -18 -18 -17 -17 -18 -20 -23 -28 -31 -31 -31 -31 -30 -30 -30 -30 -29 -29 -29 -29 -28 -28 -28
-5 -6 -6 -6 -7 -7 -8 -9 -9 -11 -20 -23 -19 -15 -14 -13 -13 -13 -14 -17 -18 -17 -17 -17 -18 -20 -24 -27 -31 -31 -31 -30 -30 -30 -30 -30 -29 -29 -29 -28 -28 -28 -28 -28
-6 -7 -7 -8 -8 -8 -8 -9 -9 -12 -21 -20 -16 -14 -14 -14 -15 -15 -17 -17 -17 -17 -17 -18 -22 -25 -28 -31 -31 -31 -30 -30 -30 -30 -29 -29 -28 -28 -28 -27 -27 -27 -27 -27

GFSNGP_850_dewp_120.txt.gz
Dewpoint
3 3 3 3 3 3 6 5 5 3 2 2 2 -1 -3 -4 -4 -5 -5 -5 -6 -6 -6 -6 -6 -6 -5 -5 -4 -4 -4 -4 -4 -4 -4 -4 -4 -4 -4 -4 -4 -4 -4 -3
3 2 3 4 3 3 4 5 5 3 3 1 -2 -3 -4 -4 -5 -5 -5 -6 -6 -6 -6 -7 -7 -6 -6 -5 -5 -5 -6 -7 -8 -8 -7 -6 -6 -6 -5 -5 -4 -4 -4 -3
3 2 2 4 2 1 -1 -1 1 3 1 -2 -2 -3 -3 -4 -5 -6 -6 -6 -6 -6 -6 -7 -7 -7 -6 -6 -5 -5 -5 -7 -9 -14 -16 -16 -15 -14 -14 -13 -11 -9 -7 -5
4 3 4 -1 -2 -1 -3 -1 -0 -0 -0 -2 -2 -3 -3 -4 -5 -6 -6 -7 -7 -7 -7 -7 -7 -7 -7 -7 -7 -8 -12 -17 -20 -19 -18 -19 -19 -19 -19 -19 -20 -20 -20 -17
3 3 1 -1 -1 -2 -2 -2 -2 -0 -2 -3 -4 -5 -5 -5 -6 -7 -7 -7 -7 -7 -7 -7 -7 -7 -7 -8 -8 -12 -14 -16 -17 -19 -21 -22 -22 -22 -21 -21 -21 -21 -23 -24
2 1 1 -3 -2 -3 -5 -2 -3 -2 -3 -4 -5 -3 -7 -6 -6 -7 -7 -7 -7 -7 -7 -7 -7 -7 -7 -9 -11 -13 -14 -16 -17 -20 -22 -24 -23 -23 -24 -26 -26 -27 -25 -23
1 1 -1 -3 -3 -6 -3 -2 -3 -3 -4 -5 -6 -6 -6 -6 -7 -7 -7 -8 -8 -8 -7 -8 -8 -10 -10 -11 -12 -13 -15 -17 -19 -21 -23 -24 -25 -29 -29 -29 -29 -30 -31 -30
1 1 -0 -3 -3 -3 -4 -4 -3 -3 -4 -5 -5 -6 -6 -7 -7 -8 -8 -8 -8 -8 -8 -8 -9 -10 -13 -12 -12 -14 -15 -17 -19 -21 -24 -25 -27 -29 -28 -29 -30 -32 -34 -34
-2 -3 -4 -3 -3 -4 -5 -4 -3 -4 -4 -5 -5 -6 -7 -7 -7 -8 -8 -8 -8 -8 -9 -9 -9 -11 -14 -14 -14 -15 -16 -18 -19 -20 -21 -22 -26 -27 -28 -28 -28 -29 -31 -33
-4 -3 -3 -3 -4 -5 -5 -5 -5 -4 -4 -5 -6 -7 -8 -7 -7 -8 -8 -9 -10 -10 -11 -11 -12 -14 -16 -14 -15 -17 -19 -19 -18 -20 -20 -20 -22 -22 -24 -21 -23 -25 -27 -27
-3 -3 -3 -3 -4 -5 -5 -6 -6 -6 -5 -5 -6 -7 -8 -8 -8 -8 -9 -13 -12 -12 -15 -17 -17 -16 -15 -15 -17 -20 -21 -21 -20 -17 -17 -18 -20 -20 -20 -19 -17 -16 -16 -20
-2 -4 -4 -4 -4 -5 -6 -7 -6 -6 -6 -6 -7 -8 -8 -8 -8 -9 -14 -16 -14 -15 -16 -17 -17 -17 -18 -19 -20 -21 -24 -22 -19 -18 -19 -20 -21 -21 -21 -20 -17 -16 -16 -16
-4 -4 -5 -4 -4 -6 -6 -7 -7 -7 -7 -7 -8 -8 -8 -8 -9 -12 -18 -15 -15 -17 -17 -16 -15 -18 -20 -20 -23 -25 -23 -21 -21 -21 -23 -23 -22 -22 -21 -20 -21 -21 -20 -20
-4 -5 -5 -4 -5 -5 -6 -7 -7 -7 -8 -8 -8 -8 -8 -9 -11 -17 -21 -21 -21 -19 -17 -17 -19 -24 -24 -23 -25 -23 -23 -24 -25 -25 -23 -21 -20 -22 -23 -24 -25 -25 -25 -24
-4 -5 -5 -5 -5 -6 -6 -7 -7 -8 -8 -8 -8 -9 -9 -11 -16 -22 -25 -28 -25 -21 -19 -20 -23 -26 -26 -27 -24 -22 -24 -25 -26 -27 -26 -25 -25 -26 -27 -27 -28 -28 -29 -28
-5 -5 -5 -5 -6 -6 -6 -7 -7 -8 -8 -8 -8 -9 -10 -14 -20 -23 -28 -31 -31 -27 -25 -25 -26 -28 -28 -24 -23 -25 -25 -27 -27 -26 -26 -25 -24 -24 -25 -25 -26 -25 -24 -23
-5 -5 -5 -5 -6 -7 -7 -7 -8 -8 -8 -8 -9 -10 -13 -19 -22 -27 -30 -30 -30 -32 -31 -28 -31 -28 -25 -23 -24 -26 -26 -26 -26 -26 -27 -24 -22 -23 -23 -24 -24 -22 -21 -20
-5 -5 -5 -5 -6 -6 -7 -7 -8 -8 -8 -9 -9 -10 -14 -19 -21 -28 -30 -30 -31 -31 -30 -30 -30 -25 -25 -25 -25 -25 -25 -25 -27 -28 -27 -25 -24 -25 -27 -27 -25 -24 -23 -21
-5 -5 -5 -5 -6 -7 -7 -7 -7 -8 -8 -9 -9 -12 -14 -17 -22 -30 -31 -31 -30 -30 -30 -30 -27 -25 -25 -26 -26 -24 -24 -26 -27 -28 -27 -25 -26 -28 -29 -28 -27 -26 -26 -24
-5 -5 -5 -5 -6 -7 -7 -7 -7 -7 -8 -9 -11 -13 -14 -17 -28 -31 -28 -28 -28 -28 -27 -23 -22 -22 -23 -24 -24 -25 -26 -27 -29 -30 -29 -29 -30 -31 -31 -31 -31 -30 -28 -27
-5 -5 -5 -5 -6 -6 -6 -7 -7 -7 -8 -8 -10 -11 -17 -23 -26 -27 -28 -29 -26 -24 -21 -19 -20 -20 -21 -23 -25 -27 -28 -30 -31 -32 -32 -32 -32 -32 -31 -31 -30 -30 -30 -29
-6 -6 -6 -6 -6 -6 -6 -7 -7 -7 -8 -9 -9 -13 -20 -25 -23 -25 -25 -24 -24 -22 -20 -19 -20 -18 -19 -22 -27 -29 -30 -32 -32 -32 -32 -32 -32 -32 -31 -31 -31 -30 -30 -29
-5 -6 -6 -5 -6 -6 -6 -7 -7 -7 -8 -9 -10 -18 -23 -27 -25 -19 -18 -18 -20 -19 -18 -18 -19 -18 -19 -23 -28 -30 -32 -32 -32 -32 -32 -32 -32 -31 -31 -30 -30 -30 -29 -29
-5 -6 -5 -5 -5 -6 -6 -7 -7 -8 -8 -9 -10 -18 -23 -25 -17 -15 -14 -17 -18 -17 -17 -18 -18 -18 -20 -25 -28 -31 -32 -32 -32 -32 -31 -31 -31 -30 -30 -30 -29 -29 -29 -28
-4 -5 -5 -5 -6 -6 -6 -7 -8 -9 -9 -9 -11 -20 -24 -18 -17 -15 -15 -15 -15 -16 -18 -18 -18 -19 -22 -25 -29 -32 -32 -32 -32 -31 -31 -30 -30 -30 -29 -29 -28 -28 -28 -27
-4 -5 -5 -6 -6 -6 -7 -8 -8 -9 -9 -10 -19 -23 -18 -14 -13 -13 -14 -14 -16 -18 -18 -17 -19 -22 -25 -28 -31 -31 -32 -31 -31 -30 -30 -30 -29 -29 -28 -28 -27 -27 -27 -28
-6 -6 -6 -7 -7 -7 -8 -8 -9 -9 -9 -10 -21 -21 -15 -14 -13 -13 -14 -16 -18 -18 -17 -19 -21 -25 -28 -30 -31 -32 -31 -31 -30 -30 -29 -29 -28 -28 -27 -27 -27 -28 -29 -29

GFSNGP_850_dewp_123.txt.gz
Dewpoint
2 1 1 1 1 2 4 3 4 1 2 1 2 2 1 -2 -4 -4 -5 -5 -5 -6 -6 -7 -7 -6 -5 -5 -6 -6 -6 -8 -10 -9 -8 -8 -9 -9 -8 -7 -6 -5 -4 -3
3 2 3 3 2 2 2 2 3 3 4 1 1 2 -2 -3 -4 -4 -5 -6 -6 -6 -7 -7 -7 -6 -6 -5 -5 -6 -6 -7 -9 -11 -16 -17 -18 -18 -19 -18 -18 -17 -15 -10
3 1 3 5 2 1 1 1 1 3 2 0 -0 -1 -2 -3 -4 -5 -5 -6 -6 -6 -7 -7 -7 -7 -7 -6 -6 -9 -16 -19 -19 -19 -20 -20 -20 -20 -20 -21 -22 -23 -22 -21
3 3 5 -3 -2 -1 1 1 -1 -1 0 -0 -1 -2 -3 -3 -4 -5 -5 -6 -7 -7 -7 -7 -7 -7 -7 -7 -9 -13 -16 -18 -20 -21 -21 -21 -21 -23 -25 -26 -26 -25 -25 -24
3 3 1 -2 -1 0 1 0 -1 -1 -1 -2 -3 -3 -4 -4 -5 -5 -6 -6 -7 -7 -7 -7 -7 -7 -7 -8 -13 -15 -17 -19 -22 -24 -24 -25 -26 -28 -29 -31 -32 -33 -31 -32
3 3 2 -0 -2 -3 -4 0 -2 -1 -2 -3 -3 -0 -3 -5 -6 -7 -6 -6 -7 -7 -7 -7 -7 -7 -9 -12 -15 -17 -19 -20 -22 -24 -25 -27 -28 -29 -31 -33 -33 -33 -34 -34
2 2 0 -3 -3 -5 0 0 -2 -2 -2 -3 -1 -3 -5 -5 -7 -7 -7 -7 -7 -7 -7 -8 -10 -10 -11 -14 -16 -17 -18 -19 -20 -23 -26 -28 -30 -31 -33 -34 -34 -35 -35 -35
2 2 2 -3 -4 -2 -2 -3 -2 -3 -3 -4 -5 -6 -5 -6 -7 -7 -8 -8 -8 -8 -8 -8 -10 -12 -14 -17 -17 -17 -18 -19 -21 -24 -26 -29 -32 -33 -32 -33 -34 -34 -34 -35
-0 0 -3 -2 -3 -4 -5 -4 -3 -3 -4 -4 -6 -6 -6 -7 -7 -8 -8 -8 -8 -8 -8 -9 -10 -13 -16 -16 -15 -16 -17 -19 -21 -23 -26 -29 -31 -30 -26 -25 -27 -28 -24 -25
-2 -3 -3 -3 -3 -4 -5 -4 -3 -3 -4 -5 -6 -6 -7 -7 -8 -8 -8 -8 -8 -8 -9 -9 -11 -15 -17 -16 -17 -17 -19 -20 -21 -23 -25 -27 -22 -17 -14 -14 -14 -15 -15 -15
-2 -3 -3 -3 -4 -5 -5 -5 -3 -4 -4 -5 -6 -6 -7 -8 -8 -8 -8 -8 -10 -10 -11 -13 -15 -16 -16 -16 -17 -19 -21 -22 -22 -23 -24 -23 -21 -15 -15 -15 -15 -15 -16 -16
-1 -4 -4 -4 -4 -5 -5 -6 -5 -4 -5 -5 -6 -7 -8 -8 -8 -8 -10 -11 -11 -13 -18 -18 -17 -17 -17 -18 -19 -22 -24 -24 -24 -25 -24 -23 -22 -23 -25 -23 -16 -16 -16 -16
-3 -4 -5 -4 -4 -5 -6 -6 -6 -6 -5 -5 -6 -7 -8 -8 -8 -9 -14 -13 -15 -17 -17 -18 -18 -20 -21 -21 -23 -26 -28 -28 -27 -27 -26 -27 -28 -28 -27 -26 -25 -19 -21 -18
-4 -5 -5 -4 -5 -6 -6 -7 -6 -6 -6 -6 -7 -8 -8 -8 -9 -15 -16 -14 -15 -17 -17 -18 -21 -25 -25 -24 -26 -29 -31 -30 -28 -27 -27 -27 -26 -26 -26 -26 -24 -23 -24 -24
-5 -5 -5 -4 -5 -6 -7 -7 -7 -7 -7 -7 -8 -8 -8 -9 -12 -18 -16 -17 -17 -18 -20 -21 -25 -29 -27 -26 -28 -30 -29 -28 -27 -26 -26 -25 -25 -26 -25 -25 -24 -22 -23 -26
-5 -5 -5 -5 -6 -6 -7 -7 -7 -8 -8 -8 -8 -8 -8 -10 -16 -21 -22 -22 -21 -21 -22 -24 -28 -30 -28 -27 -28 -28 -27 -26 -25 -25 -26 -27 -27 -27 -28 -28 -27 -25 -26 -26
-5 -5 -5 -6 -6 -6 -6 -7 -7 -8 -8 -8 -8 -9 -10 -14 -21 -25 -27 -23 -20 -23 -24 -26 -31 -31 -29 -28 -27 -26 -25 -25 -27 -28 -28 -28 -29 -30 -30 -30 -30 -29 -28 -26
-5 -5 -5 -6 -6 -7 -7 -7 -8 -8 -8 -8 -8 -9 -11 -16 -22 -27 -30 -28 -24 -24 -24 -27 -28 -29 -29 -28 -26 -24 -24 -27 -28 -30 -29 -30 -31 -31 -31 -32 -32 -32 -31 -30
-5 -6 -5 -5 -6 -6 -7 -7 -8 -8 -8 -8 -9 -10 -13 -20 -23 -28 -29 -29 -27 -26 -26 -27 -29 -27 -26 -27 -25 -25 -26 -28 -29 -30 -31 -31 -32 -32 -33 -33 -33 -32 -32 -31
-6 -5 -5 -5 -6 -6 -7 -7 -7 -7 -7 -8 -8 -10 -16 -19 -24 -29 -29 -29 -27 -27 -28 -26 -25 -25 -25 -25 -25 -27 -28 -30 -31 -32 -32 -32 -32 -32 -33 -32 -32 -31 -31 -30
-6 -5 -5 -6 -6 -6 -6 -6 -7 -7 -8 -8 -9 -11 -15 -17 -26 -30 -28 -25 -26 -26 -22 -22 -23 -22 -22 -24 -26 -29 -31 -32 -32 -32 -32 -32 -32 -32 -32 -32 -31 -31 -30 -30
-6 -5 -5 -5 -6 -6 -6 -7 -7 -7 -8 -9 -9 -10 -14 -19 -29 -28 -26 -26 -26 -22 -20 -21 -21 -19 -21 -24 -28 -30 -32 -33 -33 -32 -32 -32 -32 -32 -31 -31 -30 -30 -29 -29
-6 -6 -6 -6 -6 -6 -7 -7 -7 -7 -8 -8 -9 -9 -15 -23 -28 -27 -25 -23 -23 -21 -19 -19 -19 -18 -19 -24 -28 -31 -32 -33 -32 -32 -32 -31 -31 -31 -30 -30 -29 -29 -29 -29
-5 -6 -6 -5 -6 -6 -7 -7 -7 -7 -8 -8 -9 -9 -17 -23 -23 -24 -21 -20 -20 -19 -18 -18 -18 -18 -20 -25 -29 -31 -32 -32 -32 -31 -31 -31 -31 -30 -29 -29 -28 -29 -29 -29
-5 -5 -5 -5 -6 -6 -6 -7 -7 -8 -8 -9 -9 -13 -21 -23 -25 -18 -16 -17 -18 -17 -17 -18 -18 -19 -22 -27 -29 -32 -32 -32 -31 -31 -31 -30 -29 -29 -28 -28 -28 -28 -29 -30
-5 -5 -6 -6 -6 -6 -6 -7 -8 -8 -9 -10 -10 -16 -21 -22 -17 -15 -15 -15 -15 -16 -18 -19 -19 -20 -24 -28 -31 -32 -32 -31 -31 -30 -30 -29 -29 -28 -28 -28 -28 -28 -29 -29
-5 -6 -6 -6 -6 -7 -7 -7 -8 -8 -9 -9 -10 -15 -22 -17 -14 -14 -14 -14 -15 -18 -18 -18 -20 -23 -27 -30 -32 -32 -31 -31 -30 -30 -29 -29 -29 -28 -28 -28 -28 -28 -28 -28

GFSNGP_850_dewp_126.txt.gz
Dewpoint
-3 -3 -2 1 1 -0 1 2 4 1 -1 -4 -5 -1 1 1 1 -1 -3 -4 -4 -5 -5 -5 -6 -6 -6 -6 -5 -5 -5 -6 -6 -11 -17 -17 -18 -16 -14 -13 -11 -10 -9 -8
-2 -4 -4 -3 -3 -4 -3 -3 -2 -2 -0 -4 -4 -1 1 1 -0 -2 -3 -4 -5 -5 -5 -5 -6 -6 -6 -6 -6 -8 -10 -14 -16 -18 -19 -20 -20 -20 -18 -15 -15 -13 -11 -9
1 -3 -1 2 -1 -2 -3 -4 -2 -0 -3 -6 -3 0 2 2 -1 -2 -3 -3 -5 -5 -5 -6 -6 -6 -6 -6 -7 -11 -15 -19 -20 -20 -21 -22 -24 -26 -24 -24 -24 -22 -20 -15
1 1 5 -3 -5 -4 -4 -3 -3 -3 -4 -4 -2 0 2 1 -1 -2 -3 -4 -5 -5 -6 -6 -6 -6 -7 -7 -9 -10 -17 -21 -23 -24 -24 -26 -29 -31 -30 -28 -29 -30 -27 -23
2 -1 -3 -5 -4 1 2 -1 -4 -2 -3 -3 -0 -0 -1 -1 -1 -2 -4 -5 -5 -6 -6 -7 -7 -7 -7 -11 -10 -15 -22 -24 -25 -27 -28 -29 -30 -31 -31 -28 -28 -33 -34 -34
-0 1 0 -0 -7 -3 -2 1 -6 -4 -3 0 -1 2 0 -2 -2 -4 -5 -6 -6 -7 -7 -7 -7 -7 -9 -12 -16 -21 -22 -23 -25 -28 -30 -31 -29 -30 -29 -26 -24 -24 -30 -34
2 2 -2 -3 -4 -4 2 -0 -3 -2 -1 -1 0 -0 -2 -3 -5 -5 -6 -6 -7 -7 -7 -7 -8 -10 -12 -14 -18 -15 -20 -23 -26 -27 -28 -28 -25 -26 -24 -26 -26 -21 -16 -25
3 3 3 -2 -3 -2 1 -2 -1 0 -0 -1 -2 -4 -4 -5 -6 -6 -7 -7 -7 -7 -8 -8 -9 -12 -15 -18 -17 -19 -20 -24 -26 -27 -25 -24 -20 -16 -18 -15 -14 -12 -13 -13
0 -1 -1 -4 -1 -2 -2 -2 -1 -1 -1 -2 -4 -5 -6 -7 -7 -7 -7 -8 -8 -8 -8 -8 -9 -9 -10 -10 -13 -16 -21 -24 -26 -26 -24 -16 -13 -12 -12 -12 -12 -13 -12 -13
-0 -2 -3 -2 -2 -3 -3 -2 -2 -1 -2 -3 -5 -6 -6 -7 -7 -8 -8 -7 -7 -7 -8 -8 -9 -10 -10 -10 -11 -11 -12 -12 -12 -17 -14 -13 -13 -13 -13 -13 -12 -13 -13 -14
0 -2 -3 -3 -2 -2 -3 -3 -2 -3 -3 -4 -5 -6 -7 -8 -8 -8 -8 -8 -8 -8 -8 -9 -10 -11 -12 -12 -13 -14 -14 -13 -13 -14 -14 -15 -23 -17 -13 -15 -15 -14 -14 -15
-0 -3 -3 -1 -2 -2 -3 -3 -3 -3 -4 -5 -5 -6 -7 -8 -8 -8 -9 -8 -9 -9 -9 -11 -11 -13 -13 -17 -14 -14 -14 -14 -16 -14 -15 -15 -15 -14 -27 -22 -18 -20 -16 -16
-1 -2 -2 -2 -2 -4 -4 -3 -3 -4 -4 -5 -6 -6 -7 -8 -8 -9 -9 -9 -11 -13 -17 -18 -19 -22 -23 -25 -25 -19 -15 -19 -25 -16 -17 -16 -15 -16 -15 -15 -19 -23 -20 -17
-2 -3 -3 -3 -4 -5 -5 -5 -5 -5 -5 -6 -6 -7 -7 -8 -9 -9 -10 -12 -16 -19 -19 -20 -22 -24 -27 -30 -31 -31 -32 -31 -26 -25 -21 -15 -15 -15 -15 -15 -15 -15 -16 -18
-3 -4 -4 -4 -5 -6 -6 -6 -6 -6 -6 -6 -7 -7 -8 -8 -10 -11 -12 -15 -17 -18 -19 -22 -26 -29 -30 -30 -31 -31 -31 -30 -30 -28 -24 -17 -15 -15 -15 -15 -15 -15 -16 -17
-4 -4 -4 -5 -6 -6 -6 -6 -6 -7 -7 -7 -8 -8 -9 -10 -11 -13 -14 -16 -18 -18 -22 -25 -29 -31 -30 -31 -30 -30 -31 -31 -25 -16 -15 -15 -15 -16 -16 -16 -16 -16 -17 -23
-4 -4 -5 -5 -6 -6 -7 -7 -7 -7 -7 -8 -8 -9 -11 -12 -13 -13 -15 -17 -20 -22 -24 -26 -30 -30 -29 -28 -23 -17 -17 -27 -29 -19 -16 -16 -17 -18 -17 -17 -18 -18 -18 -26
-4 -4 -5 -5 -5 -6 -6 -7 -7 -7 -7 -8 -9 -10 -10 -12 -15 -19 -21 -20 -19 -21 -24 -28 -29 -29 -28 -27 -21 -18 -19 -22 -22 -24 -27 -30 -21 -23 -21 -19 -20 -20 -19 -20
-5 -4 -4 -5 -5 -5 -6 -6 -7 -7 -8 -8 -9 -9 -10 -14 -20 -24 -24 -22 -22 -24 -25 -28 -28 -27 -26 -26 -25 -25 -26 -27 -28 -28 -30 -32 -32 -32 -32 -28 -25 -23 -21 -22
-5 -5 -5 -5 -5 -6 -7 -7 -8 -8 -8 -8 -8 -8 -11 -18 -23 -28 -28 -25 -24 -20 -27 -27 -27 -24 -24 -25 -24 -25 -27 -28 -30 -32 -32 -33 -33 -33 -32 -32 -31 -30 -28 -29
-6 -5 -5 -6 -6 -6 -7 -7 -7 -7 -8 -8 -8 -9 -12 -20 -23 -28 -28 -24 -25 -25 -27 -26 -22 -22 -23 -24 -25 -28 -30 -31 -32 -32 -33 -33 -32 -32 -32 -31 -30 -30 -30 -31
-6 -6 -6 -6 -6 -6 -7 -6 -7 -7 -8 -8 -9 -9 -10 -17 -25 -26 -26 -20 -26 -27 -25 -23 -21 -21 -22 -24 -27 -30 -32 -32 -33 -33 -32 -32 -32 -31 -31 -30 -30 -30 -30 -31
-6 -6 -6 -6 -6 -6 -7 -7 -7 -7 -8 -8 -9 -9 -10 -12 -24 -28 -25 -24 -27 -26 -21 -19 -21 -19 -20 -24 -28 -31 -32 -32 -32 -32 -32 -32 -31 -31 -30 -29 -29 -30 -30 -30
-6 -6 -6 -6 -6 -6 -7 -7 -7 -8 -8 -8 -9 -9 -10 -12 -23 -20 -20 -25 -25 -22 -19 -20 -19 -18 -19 -24 -28 -31 -32 -32 -32 -32 -31 -31 -31 -30 -29 -29 -29 -30 -30 -30
-6 -6 -6 -6 -6 -6 -7 -7 -8 -8 -8 -9 -9 -10 -10 -14 -25 -22 -25 -24 -23 -20 -18 -17 -17 -18 -21 -25 -28 -31 -32 -32 -32 -31 -31 -31 -30 -29 -29 -28 -29 -29 -29 -29
-5 -5 -6 -6 -7 -7 -7 -7 -8 -8 -9 -9 -10 -10 -11 -19 -21 -24 -21 -18 -20 -18 -17 -17 -18 -19 -21 -25 -29 -31 -32 -32 -31 -31 -31 -30 -29 -29 -29 -28 -28 -28 -28 -28
-5 -6 -6 -6 -6 -6 -7 -7 -8 -8 -9 -9 -10 -11 -15 -20 -21 -18 -16 -16 -17 -16 -17 -18 -18 -19 -23 -27 -29 -31 -32 -31 -31 -31 -30 -29 -29 -29 -29 -28 -28 -28 -28 -28

GFSNGP_850_dewp_129.txt.gz
Dewpoint
-4 -3 2 3 4 2 2 3 7 4 1 0 -2 -3 -0 -1 1 1 -0 -1 -2 -3 -4 -4 -4 -4 -4 -4 -4 -4 -5 -5 -7 -8 -9 -9 -8 -8 -8 -8 -8 -8 -8 -8
1 -1 -5 -4 -6 -5 -5 -2 -0 -0 1 -3 -5 -7 -7 -0 1 0 -0 -2 -3 -4 -4 -5 -5 -4 -4 -5 -6 -6 -7 -8 -8 -9 -12 -14 -12 -10 -9 -9 -9 -9 -9 -9
3 -3 -3 -1 -5 -6 -6 -8 -7 -3 -6 -8 -8 -7 -4 -1 1 0 -1 -2 -3 -4 -4 -5 -5 -4 -4 -5 -7 -8 -9 -9 -13 -18 -22 -24 -19 -15 -13 -12 -11 -12 -11 -10
4 -0 5 -2 -6 -7 -6 -7 -7 -7 -7 -8 -8 -7 -3 -1 1 0 -1 -2 -3 -3 -4 -4 -5 -5 -5 -6 -7 -8 -10 -16 -18 -19 -20 -14 -20 -23 -16 -14 -14 -15 -18 -16
3 -0 -4 -7 -8 0 -0 -3 -5 -6 -7 -8 -8 -1 2 2 2 0 -2 -2 -3 -4 -5 -5 -6 -6 -6 -7 -8 -9 -17 -26 -28 -29 -26 -22 -22 -23 -17 -13 -12 -12 -13 -21
0 2 1 -1 -8 -8 -4 2 -5 -6 -6 -6 -0 4 2 1 0 -1 -2 -3 -4 -5 -6 -6 -6 -6 -6 -8 -8 -11 -11 -15 -19 -28 -28 -25 -24 -21 -18 -12 -12 -11 -11 -15
2 1 -2 -7 -9 -6 1 -0 -4 -5 -4 -4 2 1 1 -0 -1 -2 -3 -4 -5 -6 -6 -6 -6 -7 -8 -8 -16 -13 -21 -22 -21 -16 -23 -16 -16 -15 -12 -11 -11 -11 -11 -12
-0 2 2 -8 -6 -1 -1 -1 -1 -1 0 1 0 -1 -1 -2 -2 -3 -5 -6 -6 -6 -7 -7 -7 -9 -12 -16 -15 -12 -16 -25 -26 -20 -13 -11 -11 -11 -11 -11 -11 -11 -11 -11
-2 -1 1 -2 -4 -2 -1 -2 -1 -0 0 1 -2 -3 -3 -4 -4 -5 -6 -7 -7 -7 -6 -7 -8 -9 -9 -13 -17 -21 -24 -25 -25 -22 -16 -11 -11 -11 -10 -11 -11 -11 -11 -12
-2 -4 -4 -2 -2 -2 -2 -2 -1 -0 0 -1 -3 -4 -5 -5 -6 -6 -6 -6 -6 -6 -7 -8 -9 -10 -9 -9 -10 -10 -10 -11 -12 -12 -12 -12 -12 -12 -13 -12 -12 -12 -12 -13
-2 -3 -2 -3 -2 -2 -2 -2 -2 -1 -1 -3 -4 -5 -5 -6 -6 -6 -7 -6 -7 -7 -8 -9 -10 -11 -11 -12 -13 -13 -13 -13 -13 -13 -13 -15 -28 -16 -13 -26 -20 -14 -14 -14
-0 -1 1 -0 -2 -2 -2 -2 -2 -2 -2 -3 -4 -5 -6 -6 -7 -7 -6 -7 -7 -7 -8 -10 -11 -11 -13 -13 -13 -14 -14 -14 -14 -14 -15 -15 -14 -14 -17 -20 -20 -22 -21 -17
-0 -0 -0 -1 -1 -1 -2 -2 -2 -2 -3 -3 -4 -5 -6 -6 -7 -7 -7 -7 -7 -8 -9 -10 -11 -11 -12 -13 -13 -14 -14 -15 -18 -14 -14 -14 -14 -13 -12 -13 -14 -15 -17 -22
-2 -2 -2 -3 -2 -3 -3 -3 -3 -3 -4 -4 -5 -5 -6 -6 -7 -7 -7 -8 -9 -9 -11 -12 -13 -17 -20 -23 -24 -24 -20 -15 -12 -12 -12 -12 -13 -13 -13 -13 -13 -13 -15 -17
-2 -3 -3 -3 -4 -4 -4 -4 -4 -4 -5 -5 -5 -6 -6 -7 -7 -7 -8 -9 -10 -14 -18 -19 -21 -25 -27 -29 -32 -33 -31 -24 -15 -13 -14 -14 -13 -13 -13 -13 -13 -14 -14 -16
-3 -4 -4 -4 -5 -5 -5 -5 -5 -5 -5 -6 -6 -6 -7 -7 -8 -9 -10 -11 -12 -14 -19 -21 -24 -28 -29 -31 -32 -30 -29 -26 -12 -13 -13 -13 -14 -14 -14 -15 -15 -15 -15 -21
-3 -3 -4 -5 -5 -5 -6 -6 -6 -6 -6 -6 -7 -7 -8 -9 -10 -10 -11 -11 -12 -18 -21 -25 -28 -29 -30 -30 -14 -13 -17 -27 -22 -14 -14 -14 -15 -16 -16 -16 -16 -16 -16 -21
-4 -4 -4 -4 -5 -5 -6 -6 -6 -6 -6 -7 -7 -8 -10 -10 -11 -10 -10 -12 -15 -19 -22 -26 -29 -29 -30 -27 -13 -13 -13 -14 -14 -15 -17 -22 -18 -18 -16 -16 -17 -17 -17 -18
-4 -4 -4 -4 -5 -5 -6 -6 -6 -6 -6 -7 -8 -10 -11 -10 -11 -12 -13 -17 -18 -20 -24 -27 -29 -29 -29 -28 -17 -16 -15 -17 -17 -18 -25 -30 -25 -23 -24 -18 -18 -18 -18 -18
-4 -4 -4 -4 -5 -5 -6 -6 -7 -7 -7 -8 -9 -10 -10 -11 -12 -15 -19 -19 -19 -17 -27 -29 -29 -25 -27 -28 -21 -15 -16 -16 -17 -21 -27 -24 -22 -23 -20 -26 -26 -19 -19 -19
-4 -4 -5 -5 -5 -6 -6 -7 -7 -7 -8 -8 -8 -9 -9 -10 -17 -21 -19 -13 -15 -18 -26 -28 -20 -17 -22 -27 -22 -22 -20 -19 -19 -22 -27 -25 -24 -23 -24 -23 -20 -21 -20 -20
-6 -5 -5 -6 -6 -7 -7 -7 -7 -8 -8 -8 -9 -9 -9 -11 -19 -22 -16 -12 -20 -21 -26 -22 -16 -19 -25 -26 -21 -25 -27 -28 -28 -28 -27 -24 -23 -22 -24 -27 -28 -26 -25 -27
-6 -6 -6 -6 -6 -7 -7 -7 -7 -7 -8 -8 -8 -9 -9 -10 -13 -20 -15 -15 -22 -25 -20 -15 -19 -25 -23 -25 -27 -29 -31 -32 -30 -28 -29 -31 -31 -31 -30 -30 -29 -29 -30 -30
-6 -6 -6 -6 -7 -7 -7 -7 -7 -8 -8 -8 -9 -9 -9 -10 -12 -15 -14 -18 -24 -25 -14 -20 -23 -21 -21 -25 -27 -29 -31 -31 -32 -32 -32 -32 -32 -31 -30 -29 -29 -30 -30 -30
-6 -6 -6 -6 -7 -7 -8 -7 -8 -8 -8 -9 -9 -10 -10 -11 -11 -13 -15 -20 -25 -16 -19 -20 -20 -20 -20 -25 -27 -30 -31 -31 -31 -32 -32 -31 -31 -30 -30 -29 -29 -29 -29 -29
-6 -6 -6 -6 -6 -7 -8 -8 -8 -9 -10 -10 -9 -10 -11 -11 -12 -12 -15 -18 -23 -14 -22 -21 -19 -19 -21 -24 -27 -29 -31 -32 -32 -32 -32 -31 -30 -30 -30 -29 -29 -29 -29 -28
-5 -5 -6 -6 -7 -7 -7 -8 -8 -9 -9 -10 -10 -10 -11 -11 -12 -13 -15 -18 -15 -18 -21 -19 -18 -19 -20 -24 -27 -29 -31 -32 -32 -32 -31 -31 -30 -30 -30 -30 -29 -29 -29 -28